Time,TemperatureF,DewpointF,PressureIn,WindDirection,WindDirectionDegrees,WindSpeedMPH,WindSpeedGustMPH,Humidity,HourlyPrecipIn,Conditions,Clouds,dailyrainin,SolarRadiationWatts/m^2,SoftwareType,DateUTC
2013-05-27 00:01:00,51.0,39.3,30.05,NNE,22,0.0,0.0,64,0.00,,,0.00,0,WeatherCatV1.14B232,2013-05-27 04:01:00,
2013-05-27 00:06:00,50.9,39.2,30.05,NNE,22,0.0,0.0,64,0.00,,,0.00,0,WeatherCatV1.14B232,2013-05-27 04:06:00,
2013-05-27 00:11:00,51.0,39.7,30.05,NNE,22,0.0,0.0,65,0.00,,,0.00,0,WeatherCatV1.14B232,2013-05-27 04:11:00,
2013-05-27 00:16:00,50.9,39.6,30.05,NNE,22,0.0,0.0,65,0.00,,,0.00,0,WeatherCatV1.14B232,2013-05-27 04:16:00,
2013-05-27 00:21:00,50.6,40.1,30.05,NNE,22,0.0,0.0,67,0.00,,,0.00,0,WeatherCatV1.14B232,2013-05-27 04:21:00,
2013-05-27 00:26:00,50.4,39.1,30.05,NNE,22,0.0,0.0,65,0.00,,,0.00,0,WeatherCatV1.14B232,2013-05-27 04:26:00,
2013-05-27 00:31:00,50.5,39.6,30.05,NNE,22,0.0,0.0,66,0.00,,,0.00,0,WeatherCatV1.14B232,2013-05-27 04:31:00,
2013-05-27 00:36:00,50.5,38.0,30.05,NNE,22,0.0,0.0,62,0.00,,,0.00,0,WeatherCatV1.14B232,2013-05-27 04:36:00,
2013-05-27 00:41:00,50.4,38.3,30.05,NNE,22,0.0,0.0,63,0.00,,,0.00,0,WeatherCatV1.14B232,2013-05-27 04:41:00,
2013-05-27 00:46:00,50.3,39.0,30.05,NNE,22,0.0,0.0,65,0.00,,,0.00,0,WeatherCatV1.14B232,2013-05-27 04:46:00,
2013-05-27 00:51:00,49.9,39.8,30.05,NNE,22,0.0,0.0,68,0.00,,,0.00,0,WeatherCatV1.14B232,2013-05-27 04:51:00,
2013-05-27 00:56:00,49.6,39.5,30.05,NNE,22,0.0,0.0,68,0.00,,,0.00,0,WeatherCatV1.14B232,2013-05-27 04:56:00,
2013-05-27 01:01:00,49.6,39.5,30.05,NNE,22,0.0,0.0,68,0.00,,,0.00,0,WeatherCatV1.14B232,2013-05-27 05:01:00,
2013-05-27 01:06:00,49.4,40.4,30.05,NNE,22,0.0,0.0,71,0.00,,,0.00,0,WeatherCatV1.14B232,2013-05-27 05:06:00,
2013-05-27 01:11:00,49.3,39.9,30.05,NNE,22,0.0,0.0,70,0.00,,,0.00,0,WeatherCatV1.14B232,2013-05-27 05:11:00,
2013-05-27 01:16:00,49.7,39.6,30.05,NNE,22,0.0,0.0,68,0.00,,,0.00,0,WeatherCatV1.14B232,2013-05-27 05:16:00,
2013-05-27 01:21:00,50.1,39.6,30.05,NNE,22,0.0,0.0,67,0.00,,,0.00,0,WeatherCatV1.14B232,2013-05-27 05:21:00,
2013-05-27 01:26:00,50.6,39.7,30.05,NNE,22,0.0,0.0,66,0.00,,,0.00,0,WeatherCatV1.14B232,2013-05-27 05:26:00,
2013-05-27 01:31:00,51.0,39.3,30.05,NNE,22,0.0,0.0,64,0.00,,,0.00,0,WeatherCatV1.14B232,2013-05-27 05:31:00,
2013-05-27 01:36:00,50.7,40.1,30.05,NNE,22,0.0,0.0,67,0.00,,,0.00,0,WeatherCatV1.14B232,2013-05-27 05:36:00,
2013-05-27 01:41:00,50.5,39.2,30.05,NNE,22,0.0,0.0,65,0.00,,,0.00,0,WeatherCatV1.14B232,2013-05-27 05:41:00,
2013-05-27 01:46:00,50.5,39.6,30.05,NNE,22,0.0,0.0,66,0.00,,,0.00,0,WeatherCatV1.14B232,2013-05-27 05:46:00,
2013-05-27 01:51:00,50.0,39.9,30.05,NNE,22,0.0,0.0,68,0.00,,,0.00,0,WeatherCatV1.14B232,2013-05-27 05:51:00,
2013-05-27 01:56:00,49.7,39.9,30.05,NNE,22,0.0,0.0,69,0.00,,,0.00,0,WeatherCatV1.14B232,2013-05-27 05:56:00,
2013-05-27 02:01:00,49.4,40.0,30.05,NNE,22,0.0,0.0,70,0.00,,,0.00,0,WeatherCatV1.14B232,2013-05-27 06:01:00,
2013-05-27 02:06:00,49.2,39.8,30.05,NNE,22,0.0,0.0,70,0.00,,,0.00,0,WeatherCatV1.14B232,2013-05-27 06:06:00,
2013-05-27 02:11:00,49.7,39.9,30.05,NNE,22,0.0,0.0,69,0.00,,,0.00,0,WeatherCatV1.14B232,2013-05-27 06:11:00,
2013-05-27 02:16:00,49.9,40.1,30.05,NNE,22,0.0,0.0,69,0.00,,,0.00,0,WeatherCatV1.14B232,2013-05-27 06:16:00,
2013-05-27 02:21:00,50.4,39.9,30.05,NNE,22,0.0,0.0,67,0.00,,,0.00,0,WeatherCatV1.14B232,2013-05-27 06:21:00,
2013-05-27 02:26:00,50.9,40.3,30.05,NNE,22,0.0,0.0,67,0.00,,,0.00,0,WeatherCatV1.14B232,2013-05-27 06:26:00,
2013-05-27 02:31:00,51.2,39.8,30.05,NNE,22,0.0,0.0,65,0.00,,,0.00,0,WeatherCatV1.14B232,2013-05-27 06:31:00,
2013-05-27 02:36:00,51.2,39.8,30.05,NNE,22,0.0,0.0,65,0.00,,,0.00,0,WeatherCatV1.14B232,2013-05-27 06:36:00,
2013-05-27 02:41:00,50.8,39.9,30.05,NNE,22,0.0,0.0,66,0.00,,,0.00,0,WeatherCatV1.14B232,2013-05-27 06:41:00,
2013-05-27 02:46:00,50.0,40.2,30.06,NNE,22,0.0,0.0,69,0.00,,,0.00,0,WeatherCatV1.14B232,2013-05-27 06:46:00,
2013-05-27 02:51:00,49.4,40.0,30.05,NNE,22,0.0,0.0,70,0.00,,,0.00,0,WeatherCatV1.14B232,2013-05-27 06:51:00,
2013-05-27 02:56:00,49.0,40.0,30.06,NNE,22,0.0,0.0,71,0.00,,,0.00,0,WeatherCatV1.14B232,2013-05-27 06:56:00,
2013-05-27 03:01:00,48.8,40.5,30.06,NNE,22,0.0,0.0,73,0.00,,,0.00,0,WeatherCatV1.14B232,2013-05-27 07:01:00,
2013-05-27 03:06:00,48.7,40.8,30.06,NNE,22,0.0,0.0,74,0.00,,,0.00,0,WeatherCatV1.14B232,2013-05-27 07:06:00,
2013-05-27 03:11:00,48.8,40.5,30.06,NNE,22,0.0,0.0,73,0.00,,,0.00,0,WeatherCatV1.14B232,2013-05-27 07:11:00,
2013-05-27 03:16:00,48.8,39.8,30.06,NNE,22,0.0,0.0,71,0.00,,,0.00,0,WeatherCatV1.14B232,2013-05-27 07:16:00,
2013-05-27 03:21:00,48.6,40.3,30.06,NNE,22,0.0,0.0,73,0.00,,,0.00,0,WeatherCatV1.14B232,2013-05-27 07:21:00,
2013-05-27 03:26:00,48.4,39.4,30.06,NNE,22,0.0,0.0,71,0.00,,,0.00,0,WeatherCatV1.14B232,2013-05-27 07:26:00,
2013-05-27 03:31:00,48.9,39.9,30.05,NNE,22,0.0,0.0,71,0.00,,,0.00,0,WeatherCatV1.14B232,2013-05-27 07:31:00,
2013-05-27 03:36:00,48.8,39.5,30.05,NNE,22,0.0,0.0,70,0.00,,,0.00,0,WeatherCatV1.14B232,2013-05-27 07:36:00,
2013-05-27 03:41:00,48.7,39.7,30.05,NNE,22,0.0,0.0,71,0.00,,,0.00,0,WeatherCatV1.14B232,2013-05-27 07:41:00,
2013-05-27 03:46:00,48.4,39.8,30.05,NNE,22,0.0,0.0,72,0.00,,,0.00,0,WeatherCatV1.14B232,2013-05-27 07:46:00,
2013-05-27 03:51:00,48.2,40.0,30.05,NNE,22,0.0,0.0,73,0.00,,,0.00,0,WeatherCatV1.14B232,2013-05-27 07:51:00,
2013-05-27 03:56:00,48.1,39.1,30.05,NNE,22,0.0,0.0,71,0.00,,,0.00,0,WeatherCatV1.14B232,2013-05-27 07:56:00,
2013-05-27 04:01:00,48.3,39.3,30.05,NNE,22,0.0,0.0,71,0.00,,,0.00,0,WeatherCatV1.14B232,2013-05-27 08:01:00,
2013-05-27 04:06:00,48.2,39.2,30.05,NNE,22,0.0,0.0,71,0.00,,,0.00,0,WeatherCatV1.14B232,2013-05-27 08:06:00,
2013-05-27 04:11:00,48.0,39.8,30.05,NNE,22,0.0,0.0,73,0.00,,,0.00,0,WeatherCatV1.14B232,2013-05-27 08:11:00,
2013-05-27 04:16:00,47.8,39.6,30.05,NNE,22,0.0,0.0,73,0.00,,,0.00,0,WeatherCatV1.14B232,2013-05-27 08:16:00,
2013-05-27 04:21:00,47.8,39.6,30.05,NNE,22,0.0,0.0,73,0.00,,,0.00,0,WeatherCatV1.14B232,2013-05-27 08:21:00,
2013-05-27 04:26:00,48.1,39.5,30.05,NNE,22,0.0,0.0,72,0.00,,,0.00,0,WeatherCatV1.14B232,2013-05-27 08:26:00,
2013-05-27 04:31:00,48.1,39.1,30.05,NNE,22,0.0,0.0,71,0.00,,,0.00,0,WeatherCatV1.14B232,2013-05-27 08:31:00,
2013-05-27 04:36:00,48.2,38.9,30.05,NNE,22,0.0,0.0,70,0.00,,,0.00,0,WeatherCatV1.14B232,2013-05-27 08:36:00,
2013-05-27 04:41:00,48.0,39.4,30.05,NNE,22,0.0,0.0,72,0.00,,,0.00,0,WeatherCatV1.14B232,2013-05-27 08:41:00,
2013-05-27 04:46:00,47.9,39.0,30.06,NNE,22,0.0,0.0,71,0.00,,,0.00,0,WeatherCatV1.14B232,2013-05-27 08:46:00,
2013-05-27 04:51:00,48.1,38.0,30.06,NNE,22,0.0,0.0,68,0.00,,,0.00,0,WeatherCatV1.14B232,2013-05-27 08:51:00,
2013-05-27 04:56:00,48.3,38.6,30.06,NNE,22,0.0,0.0,69,0.00,,,0.00,0,WeatherCatV1.14B232,2013-05-27 08:56:00,
2013-05-27 05:01:00,48.7,38.2,30.06,NNE,22,0.0,0.0,67,0.00,,,0.00,0,WeatherCatV1.14B232,2013-05-27 09:01:00,
2013-05-27 05:06:00,48.7,38.6,30.06,NNE,22,0.0,0.0,68,0.00,,,0.00,0,WeatherCatV1.14B232,2013-05-27 09:06:00,
2013-05-27 05:11:00,49.2,37.9,30.06,WSW,257,0.0,1.0,65,0.00,,,0.00,0,WeatherCatV1.14B232,2013-05-27 09:11:00,
2013-05-27 05:16:00,49.8,38.1,30.06,WSW,257,0.0,0.0,64,0.00,,,0.00,0,WeatherCatV1.14B232,2013-05-27 09:16:00,
2013-05-27 05:21:00,50.3,37.8,30.07,WSW,254,0.0,1.0,62,0.00,,,0.00,0,WeatherCatV1.14B232,2013-05-27 09:21:00,
2013-05-27 05:26:00,50.5,38.4,30.07,WSW,254,0.0,0.0,63,0.00,,,0.00,0,WeatherCatV1.14B232,2013-05-27 09:26:00,
2013-05-27 05:27:00,50.5,38.4,30.07,WSW,254,0.0,0.0,63,0.00,,,0.00,0,WeatherCatV1.14B232,2013-05-27 09:27:00,
2013-05-27 05:32:00,50.6,38.1,30.07,WSW,254,0.0,0.0,62,0.00,,,0.00,0,WeatherCatV1.14B232,2013-05-27 09:32:00,
2013-05-27 05:37:00,51.0,38.0,30.07,WSW,252,1.0,1.0,61,0.00,,,0.00,0,WeatherCatV1.14B232,2013-05-27 09:37:00,
2013-05-27 05:42:00,51.0,38.4,30.07,NE,38,0.0,0.0,62,0.00,,,0.00,5,WeatherCatV1.14B232,2013-05-27 09:42:00,
2013-05-27 05:47:00,50.9,38.3,30.07,NE,38,0.0,0.0,62,0.00,,,0.00,7,WeatherCatV1.14B232,2013-05-27 09:47:00,
2013-05-27 05:52:00,50.9,38.8,30.07,NE,38,0.0,0.0,63,0.00,,,0.00,11,WeatherCatV1.14B232,2013-05-27 09:52:00,
2013-05-27 05:57:00,51.0,38.0,30.07,NE,38,0.0,0.0,61,0.00,,,0.00,16,WeatherCatV1.14B232,2013-05-27 09:57:00,
2013-05-27 06:02:00,51.1,38.5,30.07,NE,38,0.0,0.0,62,0.00,,,0.00,19,WeatherCatV1.14B232,2013-05-27 10:02:00,
2013-05-27 06:07:00,51.2,37.8,30.07,NE,38,0.0,0.0,60,0.00,,,0.00,21,WeatherCatV1.14B232,2013-05-27 10:07:00,
2013-05-27 06:12:00,51.3,38.7,30.08,NE,38,0.0,0.0,62,0.00,,,0.00,23,WeatherCatV1.14B232,2013-05-27 10:12:00,
2013-05-27 06:17:00,51.1,38.5,30.08,NE,38,0.0,0.0,62,0.00,,,0.00,25,WeatherCatV1.14B232,2013-05-27 10:17:00,
2013-05-27 06:22:00,51.2,38.6,30.08,NE,38,0.0,0.0,62,0.00,,,0.00,26,WeatherCatV1.14B232,2013-05-27 10:22:00,
2013-05-27 06:27:00,51.3,39.5,30.08,NE,38,0.0,0.0,64,0.00,,,0.00,28,WeatherCatV1.14B232,2013-05-27 10:27:00,
2013-05-27 06:32:00,51.5,38.9,30.08,NE,38,0.0,0.0,62,0.00,,,0.00,30,WeatherCatV1.14B232,2013-05-27 10:32:00,
2013-05-27 06:37:00,51.6,39.0,30.08,NE,38,0.0,0.0,62,0.00,,,0.00,37,WeatherCatV1.14B232,2013-05-27 10:37:00,
2013-05-27 06:42:00,52.1,39.1,30.08,NE,38,0.0,0.0,61,0.00,,,0.00,33,WeatherCatV1.14B232,2013-05-27 10:42:00,
2013-05-27 06:47:00,52.1,41.1,30.08,NE,38,0.0,0.0,66,0.00,,,0.00,33,WeatherCatV1.14B232,2013-05-27 10:47:00,
2013-05-27 06:52:00,52.2,40.0,30.08,NE,38,0.0,0.0,63,0.00,,,0.00,37,WeatherCatV1.14B232,2013-05-27 10:52:00,
2013-05-27 06:57:00,52.5,39.0,30.08,NE,38,0.0,0.0,60,0.00,,,0.00,37,WeatherCatV1.14B232,2013-05-27 10:57:00,
2013-05-27 07:02:00,53.1,40.4,30.08,NE,38,0.0,0.0,62,0.00,,,0.00,37,WeatherCatV1.14B232,2013-05-27 11:02:00,
2013-05-27 07:07:00,53.2,39.7,30.08,NE,38,0.0,0.0,60,0.00,,,0.00,39,WeatherCatV1.14B232,2013-05-27 11:07:00,
2013-05-27 07:12:00,53.4,39.9,30.08,NW,319,0.0,0.0,60,0.00,,,0.00,39,WeatherCatV1.14B232,2013-05-27 11:12:00,
2013-05-27 07:17:00,53.6,40.5,30.08,NW,319,0.0,0.0,61,0.00,,,0.00,40,WeatherCatV1.14B232,2013-05-27 11:17:00,
2013-05-27 07:22:00,53.9,39.9,30.08,NW,319,0.0,0.0,59,0.00,,,0.00,40,WeatherCatV1.14B232,2013-05-27 11:22:00,
2013-05-27 07:27:00,54.1,39.7,30.08,SE,132,1.0,2.0,58,0.00,,,0.00,40,WeatherCatV1.14B232,2013-05-27 11:27:00,
2013-05-27 07:32:00,54.4,40.4,30.08,SE,132,0.0,0.0,59,0.00,,,0.00,42,WeatherCatV1.14B232,2013-05-27 11:32:00,
2013-05-27 07:37:00,54.5,40.9,30.08,SE,139,0.0,0.0,60,0.00,,,0.00,44,WeatherCatV1.14B232,2013-05-27 11:37:00,
2013-05-27 07:42:00,54.6,41.0,30.08,SE,139,0.0,0.0,60,0.00,,,0.00,42,WeatherCatV1.14B232,2013-05-27 11:42:00,
2013-05-27 07:47:00,54.7,41.5,30.08,SE,139,0.0,0.0,61,0.00,,,0.00,44,WeatherCatV1.14B232,2013-05-27 11:47:00,
2013-05-27 07:52:00,54.8,41.2,30.08,SW,223,0.0,1.0,60,0.00,,,0.00,56,WeatherCatV1.14B232,2013-05-27 11:52:00,
2013-05-27 07:57:00,55.0,41.4,30.08,SW,223,0.0,0.0,60,0.00,,,0.00,46,WeatherCatV1.14B232,2013-05-27 11:57:00,
2013-05-27 08:02:00,55.0,40.9,30.08,WSW,242,0.0,2.0,59,0.00,,,0.00,46,WeatherCatV1.14B232,2013-05-27 12:02:00,
2013-05-27 08:07:00,55.2,40.7,30.08,WSW,240,0.0,2.0,58,0.00,,,0.00,47,WeatherCatV1.14B232,2013-05-27 12:07:00,
2013-05-27 08:12:00,55.3,40.8,30.09,WSW,242,0.0,2.0,58,0.00,,,0.00,47,WeatherCatV1.14B232,2013-05-27 12:12:00,
2013-05-27 08:17:00,55.6,41.5,30.09,WSW,242,0.0,0.0,59,0.00,,,0.00,49,WeatherCatV1.14B232,2013-05-27 12:17:00,
2013-05-27 08:22:00,56.2,41.2,30.09,WSW,245,0.0,1.0,57,0.00,,,0.00,49,WeatherCatV1.14B232,2013-05-27 12:22:00,
2013-05-27 08:27:00,56.4,40.0,30.09,WNW,296,0.0,2.0,54,0.00,,,0.00,51,WeatherCatV1.14B232,2013-05-27 12:27:00,
2013-05-27 08:32:00,56.5,40.5,30.09,WNW,288,0.0,1.0,55,0.00,,,0.00,51,WeatherCatV1.14B232,2013-05-27 12:32:00,
2013-05-27 08:37:00,56.8,40.8,30.09,WSW,254,0.0,2.0,55,0.00,,,0.00,53,WeatherCatV1.14B232,2013-05-27 12:37:00,
2013-05-27 08:42:00,57.2,40.7,30.09,NW,304,0.0,2.0,54,0.00,,,0.00,53,WeatherCatV1.14B232,2013-05-27 12:42:00,
2013-05-27 08:47:00,57.6,40.6,30.09,WNW,296,2.0,3.0,53,0.00,,,0.00,54,WeatherCatV1.14B232,2013-05-27 12:47:00,
2013-05-27 08:52:00,57.6,40.6,30.09,WSW,249,0.0,0.0,53,0.00,,,0.00,56,WeatherCatV1.14B232,2013-05-27 12:52:00,
2013-05-27 08:57:00,57.6,40.6,30.09,WNW,296,1.0,2.0,53,0.00,,,0.00,56,WeatherCatV1.14B232,2013-05-27 12:57:00,
2013-05-27 09:02:00,57.9,39.4,30.09,WNW,296,2.0,3.0,50,0.00,,,0.00,58,WeatherCatV1.14B232,2013-05-27 13:02:00,
2013-05-27 09:07:00,58.2,41.2,30.08,WNW,296,0.0,0.0,53,0.00,,,0.00,60,WeatherCatV1.14B232,2013-05-27 13:07:00,
2013-05-27 09:12:00,58.5,40.4,30.08,ENE,65,1.0,2.0,51,0.00,,,0.00,62,WeatherCatV1.14B232,2013-05-27 13:12:00,
2013-05-27 09:17:00,59.2,42.1,30.08,West,279,0.0,5.0,53,0.00,,,0.00,63,WeatherCatV1.14B232,2013-05-27 13:17:00,
2013-05-27 09:22:00,59.1,41.5,30.08,West,279,0.0,0.0,52,0.00,,,0.00,65,WeatherCatV1.14B232,2013-05-27 13:22:00,
2013-05-27 09:27:00,59.2,40.6,30.08,West,272,0.0,1.0,50,0.00,,,0.00,65,WeatherCatV1.14B232,2013-05-27 13:27:00,
2013-05-27 09:32:00,59.6,40.9,30.08,SW,223,1.0,3.0,50,0.00,,,0.00,67,WeatherCatV1.14B232,2013-05-27 13:32:00,
2013-05-27 09:37:00,60.2,40.4,30.08,ESE,111,0.0,4.0,48,0.00,,,0.00,69,WeatherCatV1.14B232,2013-05-27 13:37:00,
2013-05-27 09:42:00,60.1,40.9,30.08,ESE,111,0.0,1.0,49,0.00,,,0.00,70,WeatherCatV1.14B232,2013-05-27 13:42:00,
2013-05-27 09:47:00,60.3,41.1,30.08,ESE,114,0.0,0.0,49,0.00,,,0.00,74,WeatherCatV1.14B232,2013-05-27 13:47:00,
2013-05-27 09:52:00,60.8,42.6,30.08,South,175,0.0,0.0,51,0.00,,,0.00,77,WeatherCatV1.14B232,2013-05-27 13:52:00,
2013-05-27 09:57:00,61.2,41.9,30.08,South,186,0.0,0.0,49,0.00,,,0.00,77,WeatherCatV1.14B232,2013-05-27 13:57:00,
2013-05-27 10:02:00,62.1,42.7,30.08,SW,232,1.0,3.0,49,0.00,,,0.00,79,WeatherCatV1.14B232,2013-05-27 14:02:00,
2013-05-27 10:07:00,62.3,41.8,30.08,NW,309,0.0,0.0,47,0.00,,,0.00,79,WeatherCatV1.14B232,2013-05-27 14:07:00,
2013-05-27 10:12:00,62.5,42.0,30.08,SSW,202,1.0,2.0,47,0.00,,,0.00,134,WeatherCatV1.14B232,2013-05-27 14:12:00,
2013-05-27 10:17:00,63.7,41.4,30.08,SSE,167,0.0,3.0,44,0.00,,,0.00,795,WeatherCatV1.14B232,2013-05-27 14:17:00,
2013-05-27 10:22:00,63.9,41.6,30.08,WSW,250,0.0,1.0,44,0.00,,,0.00,809,WeatherCatV1.14B232,2013-05-27 14:22:00,
2013-05-27 10:27:00,65.0,42.5,30.08,SW,228,1.0,3.0,44,0.00,,,0.00,824,WeatherCatV1.14B232,2013-05-27 14:27:00,
2013-05-27 10:32:00,65.3,44.0,30.08,South,172,0.0,2.0,46,0.00,,,0.00,833,WeatherCatV1.14B232,2013-05-27 14:32:00,
2013-05-27 10:37:00,65.4,41.1,30.08,SE,139,0.0,1.0,41,0.00,,,0.00,854,WeatherCatV1.14B232,2013-05-27 14:37:00,
2013-05-27 10:42:00,66.2,42.4,30.08,WNW,289,1.0,5.0,42,0.00,,,0.00,863,WeatherCatV1.14B232,2013-05-27 14:42:00,
2013-05-27 10:47:00,66.7,40.3,30.08,SE,124,0.0,2.0,38,0.00,,,0.00,874,WeatherCatV1.14B232,2013-05-27 14:47:00,
2013-05-27 10:52:00,67.6,39.7,30.08,WSW,244,2.0,3.0,36,0.00,,,0.00,888,WeatherCatV1.14B232,2013-05-27 14:52:00,
2013-05-27 10:57:00,68.2,39.5,30.08,WNW,288,0.0,2.0,35,0.00,,,0.00,900,WeatherCatV1.14B232,2013-05-27 14:57:00,
2013-05-27 11:02:00,68.5,41.2,30.08,WNW,287,2.0,2.0,37,0.00,,,0.00,911,WeatherCatV1.14B232,2013-05-27 15:02:00,
2013-05-27 11:07:00,68.6,40.6,30.08,SW,227,0.0,5.0,36,0.00,,,0.00,919,WeatherCatV1.14B232,2013-05-27 15:07:00,
2013-05-27 11:12:00,68.3,38.8,30.08,WNW,294,1.0,2.0,34,0.00,,,0.00,928,WeatherCatV1.14B232,2013-05-27 15:12:00,
2013-05-27 11:17:00,69.1,38.8,30.07,NW,308,1.0,3.0,33,0.00,,,0.00,935,WeatherCatV1.14B232,2013-05-27 15:17:00,
2013-05-27 11:22:00,69.2,35.6,30.07,WNW,289,0.0,3.0,29,0.00,,,0.00,947,WeatherCatV1.14B232,2013-05-27 15:22:00,
2013-05-27 11:27:00,69.2,37.3,30.07,NW,305,2.0,5.0,31,0.00,,,0.00,956,WeatherCatV1.14B232,2013-05-27 15:27:00,
2013-05-27 11:32:00,69.3,39.7,30.07,SE,140,1.0,2.0,34,0.00,,,0.00,960,WeatherCatV1.14B232,2013-05-27 15:32:00,
2013-05-27 11:37:00,69.7,40.8,30.07,East,91,0.0,2.0,35,0.00,,,0.00,970,WeatherCatV1.14B232,2013-05-27 15:37:00,
2013-05-27 11:42:00,70.4,40.7,30.07,SW,229,1.0,4.0,34,0.00,,,0.00,976,WeatherCatV1.14B232,2013-05-27 15:42:00,
2013-05-27 11:47:00,70.0,40.3,30.06,WSW,244,4.0,4.0,34,0.00,,,0.00,981,WeatherCatV1.14B232,2013-05-27 15:47:00,
2013-05-27 11:52:00,70.5,39.2,30.06,NW,321,2.0,3.0,32,0.00,,,0.00,990,WeatherCatV1.14B232,2013-05-27 15:52:00,
2013-05-27 11:57:00,70.4,38.3,30.06,NW,321,1.0,2.0,31,0.00,,,0.00,991,WeatherCatV1.14B232,2013-05-27 15:57:00,
2013-05-27 12:02:00,70.8,37.0,30.06,WNW,303,2.0,4.0,29,0.00,,,0.00,1002,WeatherCatV1.14B232,2013-05-27 16:02:00,
2013-05-27 12:07:00,70.8,37.0,30.06,SW,226,3.0,4.0,29,0.00,,,0.00,1011,WeatherCatV1.14B232,2013-05-27 16:07:00,
2013-05-27 12:12:00,70.9,41.1,30.05,WNW,302,1.0,3.0,34,0.00,,,0.00,1007,WeatherCatV1.14B232,2013-05-27 16:12:00,
2013-05-27 12:17:00,71.2,39.8,30.05,WNW,290,1.0,3.0,32,0.00,,,0.00,1013,WeatherCatV1.14B232,2013-05-27 16:17:00,
2013-05-27 12:22:00,71.3,41.5,30.05,WNW,296,0.0,3.0,34,0.00,,,0.00,1014,WeatherCatV1.14B232,2013-05-27 16:22:00,
2013-05-27 12:27:00,71.6,39.4,30.05,WNW,301,2.0,3.0,31,0.00,,,0.00,1014,WeatherCatV1.14B232,2013-05-27 16:27:00,
2013-05-27 12:32:00,71.5,41.6,30.05,WSW,248,1.0,3.0,34,0.00,,,0.00,1021,WeatherCatV1.14B232,2013-05-27 16:32:00,
2013-05-27 12:37:00,71.8,40.3,30.05,WNW,292,0.0,2.0,32,0.00,,,0.00,1021,WeatherCatV1.14B232,2013-05-27 16:37:00,
2013-05-27 12:42:00,71.8,40.3,30.05,WNW,292,2.0,3.0,32,0.00,,,0.00,1021,WeatherCatV1.14B232,2013-05-27 16:42:00,
2013-05-27 12:47:00,71.7,39.4,30.04,WNW,295,0.0,0.0,31,0.00,,,0.00,1021,WeatherCatV1.14B232,2013-05-27 16:47:00,
2013-05-27 12:52:00,72.0,41.3,30.04,WSW,249,1.0,2.0,33,0.00,,,0.00,1027,WeatherCatV1.14B232,2013-05-27 16:52:00,
2013-05-27 12:57:00,72.4,39.2,30.04,NW,309,2.0,4.0,30,0.00,,,0.00,1027,WeatherCatV1.14B232,2013-05-27 16:57:00,
2013-05-27 13:02:00,72.6,40.2,30.04,South,169,1.0,7.0,31,0.00,,,0.00,1027,WeatherCatV1.14B232,2013-05-27 17:02:00,
2013-05-27 13:07:00,72.8,40.4,30.03,SW,222,0.0,2.0,31,0.00,,,0.00,1023,WeatherCatV1.14B232,2013-05-27 17:07:00,
2013-05-27 13:12:00,73.4,41.7,30.03,WSW,242,1.0,2.0,32,0.00,,,0.00,1023,WeatherCatV1.14B232,2013-05-27 17:12:00,
2013-05-27 13:17:00,73.3,42.4,30.03,WNW,291,1.0,2.0,33,0.00,,,0.00,1018,WeatherCatV1.14B232,2013-05-27 17:17:00,
2013-05-27 13:22:00,73.5,42.6,30.03,WSW,242,3.0,3.0,33,0.00,,,0.00,1018,WeatherCatV1.14B232,2013-05-27 17:22:00,
2013-05-27 13:27:00,73.3,42.4,30.03,WSW,239,5.0,6.0,33,0.00,,,0.00,1016,WeatherCatV1.14B232,2013-05-27 17:27:00,
2013-05-27 13:32:00,73.3,42.4,30.02,NW,306,0.0,3.0,33,0.00,,,0.00,1011,WeatherCatV1.14B232,2013-05-27 17:32:00,
2013-05-27 13:37:00,73.9,43.7,30.02,WNW,300,0.0,1.0,34,0.00,,,0.00,1011,WeatherCatV1.14B232,2013-05-27 17:37:00,
2013-05-27 13:42:00,73.8,42.1,30.02,WNW,292,0.0,2.0,32,0.00,,,0.00,1005,WeatherCatV1.14B232,2013-05-27 17:42:00,
2013-05-27 13:47:00,73.5,41.8,30.02,WNW,303,3.0,3.0,32,0.00,,,0.00,1002,WeatherCatV1.14B232,2013-05-27 17:47:00,
2013-05-27 13:52:00,73.6,40.2,30.01,ESE,115,0.0,4.0,30,0.00,,,0.00,995,WeatherCatV1.14B232,2013-05-27 17:52:00,
2013-05-27 13:57:00,73.9,40.5,30.02,West,259,1.0,5.0,30,0.00,,,0.00,993,WeatherCatV1.14B232,2013-05-27 17:57:00,
2013-05-27 14:02:00,73.6,40.2,30.01,WSW,243,2.0,3.0,30,0.00,,,0.00,984,WeatherCatV1.14B232,2013-05-27 18:02:00,
2013-05-27 14:07:00,73.7,41.2,30.01,WNW,295,0.0,3.0,31,0.00,,,0.00,977,WeatherCatV1.14B232,2013-05-27 18:07:00,
2013-05-27 14:12:00,74.3,41.7,30.01,WSW,254,3.0,5.0,31,0.00,,,0.00,976,WeatherCatV1.14B232,2013-05-27 18:12:00,
2013-05-27 14:17:00,74.5,39.2,30.01,WNW,299,1.0,3.0,28,0.00,,,0.00,967,WeatherCatV1.14B232,2013-05-27 18:17:00,
2013-05-27 14:22:00,74.8,38.6,30.01,WNW,298,2.0,4.0,27,0.00,,,0.00,958,WeatherCatV1.14B232,2013-05-27 18:22:00,
2013-05-27 14:27:00,74.4,40.1,30.01,NW,304,0.0,2.0,29,0.00,,,0.00,951,WeatherCatV1.14B232,2013-05-27 18:27:00,
2013-05-27 14:32:00,74.6,38.4,30.01,WNW,300,1.0,3.0,27,0.00,,,0.00,942,WeatherCatV1.14B232,2013-05-27 18:32:00,
2013-05-27 14:37:00,74.5,41.9,30.01,WNW,298,1.0,3.0,31,0.00,,,0.00,933,WeatherCatV1.14B232,2013-05-27 18:37:00,
2013-05-27 14:42:00,74.4,41.8,30.01,SW,223,1.0,5.0,31,0.00,,,0.00,925,WeatherCatV1.14B232,2013-05-27 18:42:00,
2013-05-27 14:47:00,73.6,41.9,30.01,WSW,248,5.0,6.0,32,0.00,,,0.00,912,WeatherCatV1.14B232,2013-05-27 18:47:00,
2013-05-27 14:52:00,73.3,44.0,30.00,WSW,246,1.0,3.0,35,0.00,,,0.00,898,WeatherCatV1.14B232,2013-05-27 18:52:00,
2013-05-27 14:57:00,73.7,42.8,30.00,WSW,242,3.0,4.0,33,0.00,,,0.00,886,WeatherCatV1.14B232,2013-05-27 18:57:00,
2013-05-27 15:02:00,72.4,41.7,30.00,ESE,119,0.0,2.0,33,0.00,,,0.00,881,WeatherCatV1.14B232,2013-05-27 19:02:00,
2013-05-27 15:07:00,72.5,41.7,30.00,ENE,70,1.0,9.0,33,0.00,,,0.00,870,WeatherCatV1.14B232,2013-05-27 19:07:00,
2013-05-27 15:12:00,72.8,41.2,30.00,West,259,1.0,7.0,32,0.00,,,0.00,854,WeatherCatV1.14B232,2013-05-27 19:12:00,
2013-05-27 15:17:00,73.0,41.4,30.00,SW,235,2.0,7.0,32,0.00,,,0.00,849,WeatherCatV1.14B232,2013-05-27 19:17:00,
2013-05-27 15:22:00,72.8,42.0,30.00,WSW,241,3.0,4.0,33,0.00,,,0.00,837,WeatherCatV1.14B232,2013-05-27 19:22:00,
2013-05-27 15:27:00,73.0,43.0,29.99,East,98,0.0,6.0,34,0.00,,,0.00,823,WeatherCatV1.14B232,2013-05-27 19:27:00,
2013-05-27 15:32:00,72.9,41.3,29.99,ESE,109,0.0,6.0,32,0.00,,,0.00,812,WeatherCatV1.14B232,2013-05-27 19:32:00,
2013-05-27 15:37:00,72.8,39.5,29.99,WSW,256,1.0,5.0,30,0.00,,,0.00,800,WeatherCatV1.14B232,2013-05-27 19:37:00,
2013-05-27 15:42:00,72.5,41.7,29.99,WSW,248,5.0,5.0,33,0.00,,,0.00,788,WeatherCatV1.14B232,2013-05-27 19:42:00,
2013-05-27 15:46:00,72.4,40.9,29.99,ESE,109,2.0,2.0,32,0.00,,,0.00,666,WeatherCatV1.14B232,2013-05-27 19:46:00,
2013-05-27 15:51:00,72.1,41.4,29.99,ESE,115,6.0,8.0,33,0.00,,,0.00,719,WeatherCatV1.14B232,2013-05-27 19:51:00,
2013-05-27 15:52:00,72.0,40.5,29.99,ESE,111,5.0,11.0,32,0.00,,,0.00,724,WeatherCatV1.14B232,2013-05-27 19:52:00,
2013-05-27 15:57:00,71.3,41.5,29.99,ESE,111,4.0,4.0,34,0.00,,,0.00,387,WeatherCatV1.14B232,2013-05-27 19:57:00,
2013-05-27 16:02:00,71.2,40.6,29.99,WSW,238,6.0,11.0,33,0.00,,,0.00,253,WeatherCatV1.14B232,2013-05-27 20:02:00,
2013-05-27 16:07:00,70.2,39.0,29.99,WSW,257,3.0,5.0,32,0.00,,,0.00,552,WeatherCatV1.14B232,2013-05-27 20:07:00,
2013-05-27 16:12:00,70.0,41.1,29.99,East,98,5.0,9.0,35,0.00,,,0.00,113,WeatherCatV1.14B232,2013-05-27 20:12:00,
2013-05-27 16:17:00,70.1,40.4,29.98,SW,234,5.0,8.0,34,0.00,,,0.00,90,WeatherCatV1.14B232,2013-05-27 20:17:00,
2013-05-27 16:22:00,69.8,40.9,29.98,East,94,2.0,6.0,35,0.00,,,0.00,88,WeatherCatV1.14B232,2013-05-27 20:22:00,
2013-05-27 16:27:00,70.0,41.1,29.98,ESE,107,1.0,4.0,35,0.00,,,0.00,86,WeatherCatV1.14B232,2013-05-27 20:27:00,
2013-05-27 16:32:00,70.1,41.9,29.98,East,90,5.0,7.0,36,0.00,,,0.00,84,WeatherCatV1.14B232,2013-05-27 20:32:00,
2013-05-27 16:37:00,70.1,43.3,29.98,South,183,0.0,5.0,38,0.00,,,0.00,83,WeatherCatV1.14B232,2013-05-27 20:37:00,
2013-05-27 16:42:00,69.8,41.6,29.98,ESE,115,2.0,6.0,36,0.00,,,0.00,83,WeatherCatV1.14B232,2013-05-27 20:42:00,
2013-05-27 16:47:00,69.8,43.0,29.98,East,84,4.0,8.0,38,0.00,,,0.00,81,WeatherCatV1.14B232,2013-05-27 20:47:00,
2013-05-27 16:52:00,69.3,42.6,29.98,ENE,65,5.0,6.0,38,0.00,,,0.00,77,WeatherCatV1.14B232,2013-05-27 20:52:00,
2013-05-27 16:57:00,69.1,43.1,29.98,WSW,255,2.0,5.0,39,0.00,,,0.00,77,WeatherCatV1.14B232,2013-05-27 20:57:00,
2013-05-27 17:02:00,69.1,42.4,29.98,SE,142,0.0,4.0,38,0.00,,,0.00,77,WeatherCatV1.14B232,2013-05-27 21:02:00,
2013-05-27 17:07:00,69.2,43.8,29.97,East,99,1.0,5.0,40,0.00,,,0.00,111,WeatherCatV1.14B232,2013-05-27 21:07:00,
2013-05-27 17:12:00,68.9,42.9,29.98,East,101,0.0,9.0,39,0.00,,,0.00,74,WeatherCatV1.14B232,2013-05-27 21:12:00,
2013-05-27 17:17:00,68.5,43.2,29.98,SE,130,7.0,7.0,40,0.00,,,0.00,70,WeatherCatV1.14B232,2013-05-27 21:17:00,
2013-05-27 17:22:00,68.4,43.1,29.98,SSW,194,2.0,2.0,40,0.00,,,0.00,70,WeatherCatV1.14B232,2013-05-27 21:22:00,
2013-05-27 17:27:00,68.4,43.1,29.98,ESE,120,6.0,8.0,40,0.00,,,0.00,77,WeatherCatV1.14B232,2013-05-27 21:27:00,
2013-05-27 17:32:00,68.1,43.5,29.98,East,91,1.0,6.0,41,0.00,,,0.00,113,WeatherCatV1.14B232,2013-05-27 21:32:00,
2013-05-27 17:37:00,68.0,43.4,29.98,SSW,192,0.0,7.0,41,0.00,,,0.00,95,WeatherCatV1.14B232,2013-05-27 21:37:00,
2013-05-27 17:42:00,67.9,43.3,29.98,East,101,0.0,6.0,41,0.00,,,0.00,51,WeatherCatV1.14B232,2013-05-27 21:42:00,
2013-05-27 17:47:00,67.9,43.3,29.97,East,88,1.0,7.0,41,0.00,,,0.00,67,WeatherCatV1.14B232,2013-05-27 21:47:00,
2013-05-27 17:52:00,67.8,43.2,29.97,ESE,113,5.0,7.0,41,0.00,,,0.00,63,WeatherCatV1.14B232,2013-05-27 21:52:00,
2013-05-27 17:57:00,67.8,43.9,29.97,ESE,108,4.0,6.0,42,0.00,,,0.00,63,WeatherCatV1.14B232,2013-05-27 21:57:00,
2013-05-27 18:02:00,67.7,43.1,29.98,East,91,4.0,8.0,41,0.00,,,0.00,63,WeatherCatV1.14B232,2013-05-27 22:02:00,
2013-05-27 18:07:00,67.7,43.8,29.97,SE,126,2.0,5.0,42,0.00,,,0.00,62,WeatherCatV1.14B232,2013-05-27 22:07:00,
2013-05-27 18:12:00,67.7,44.4,29.97,East,96,0.0,4.0,43,0.00,,,0.00,62,WeatherCatV1.14B232,2013-05-27 22:12:00,
2013-05-27 18:17:00,67.7,44.4,29.97,ESE,115,5.0,6.0,43,0.00,,,0.00,155,WeatherCatV1.14B232,2013-05-27 22:17:00,
2013-05-27 18:22:00,67.7,43.8,29.97,ESE,113,2.0,6.0,42,0.00,,,0.00,86,WeatherCatV1.14B232,2013-05-27 22:22:00,
2013-05-27 18:27:00,67.5,43.6,29.97,ENE,64,2.0,6.0,42,0.00,,,0.00,86,WeatherCatV1.14B232,2013-05-27 22:27:00,
2013-05-27 18:32:00,67.2,44.5,29.97,ENE,78,1.0,4.0,44,0.00,,,0.00,51,WeatherCatV1.14B232,2013-05-27 22:32:00,
2013-05-27 18:37:00,66.9,44.9,29.97,ESE,103,4.0,8.0,45,0.00,,,0.00,49,WeatherCatV1.14B232,2013-05-27 22:37:00,
2013-05-27 18:42:00,66.7,45.3,29.97,ESE,105,6.0,6.0,46,0.00,,,0.00,53,WeatherCatV1.14B232,2013-05-27 22:42:00,
2013-05-27 18:47:00,66.3,45.5,29.97,East,88,0.0,7.0,47,0.00,,,0.00,46,WeatherCatV1.14B232,2013-05-27 22:47:00,
2013-05-27 18:52:00,66.1,45.8,29.97,ESE,107,4.0,6.0,48,0.00,,,0.00,44,WeatherCatV1.14B232,2013-05-27 22:52:00,
2013-05-27 18:57:00,65.9,46.2,29.97,East,99,4.0,6.0,49,0.00,,,0.00,54,WeatherCatV1.14B232,2013-05-27 22:57:00,
2013-05-27 19:02:00,65.7,46.5,29.97,SE,130,4.0,6.0,50,0.00,,,0.00,79,WeatherCatV1.14B232,2013-05-27 23:02:00,
2013-05-27 19:07:00,65.5,46.4,29.97,East,94,1.0,4.0,50,0.00,,,0.00,28,WeatherCatV1.14B232,2013-05-27 23:07:00,
2013-05-27 19:12:00,65.3,46.7,29.97,SE,127,1.0,1.0,51,0.00,,,0.00,26,WeatherCatV1.14B232,2013-05-27 23:12:00,
2013-05-27 19:17:00,65.1,47.0,29.97,WSW,257,3.0,6.0,52,0.00,,,0.00,32,WeatherCatV1.14B232,2013-05-27 23:17:00,
2013-05-27 19:22:00,64.9,46.8,29.97,East,100,1.0,5.0,52,0.00,,,0.00,28,WeatherCatV1.14B232,2013-05-27 23:22:00,
2013-05-27 19:27:00,64.8,47.3,29.97,SW,226,1.0,6.0,53,0.00,,,0.00,25,WeatherCatV1.14B232,2013-05-27 23:27:00,
2013-05-27 19:32:00,64.5,48.0,29.98,ESE,118,0.0,4.0,55,0.00,,,0.00,26,WeatherCatV1.14B232,2013-05-27 23:32:00,
2013-05-27 19:37:00,64.3,47.8,29.98,SE,142,1.0,6.0,55,0.00,,,0.00,26,WeatherCatV1.14B232,2013-05-27 23:37:00,
2013-05-27 19:42:00,64.1,48.1,29.98,SW,223,0.0,5.0,56,0.00,,,0.00,21,WeatherCatV1.14B232,2013-05-27 23:42:00,
2013-05-27 19:47:00,63.9,47.9,29.98,WSW,244,1.0,4.0,56,0.00,,,0.00,16,WeatherCatV1.14B232,2013-05-27 23:47:00,
2013-05-27 19:52:00,63.7,48.2,29.98,ESE,123,2.0,4.0,57,0.00,,,0.00,11,WeatherCatV1.14B232,2013-05-27 23:52:00,
2013-05-27 19:57:00,63.6,48.5,29.98,SSW,203,0.0,5.0,58,0.00,,,0.00,9,WeatherCatV1.14B232,2013-05-27 23:57:00,
2013-05-27 20:02:00,63.3,48.3,29.98,East,93,1.0,5.0,58,0.00,,,0.00,5,WeatherCatV1.14B232,2013-05-28 00:02:00,
2013-05-27 20:07:00,63.2,48.6,29.98,WSW,242,1.0,4.0,59,0.00,,,0.00,0,WeatherCatV1.14B232,2013-05-28 00:07:00,
2013-05-27 20:12:00,62.9,48.3,29.98,SSE,153,0.0,0.0,59,0.00,,,0.00,0,WeatherCatV1.14B232,2013-05-28 00:12:00,
2013-05-27 20:17:00,62.7,48.6,29.98,SW,217,1.0,3.0,60,0.00,,,0.00,0,WeatherCatV1.14B232,2013-05-28 00:17:00,
2013-05-27 20:22:00,62.3,48.7,29.98,SSE,159,0.0,4.0,61,0.00,,,0.00,0,WeatherCatV1.14B232,2013-05-28 00:22:00,
2013-05-27 20:27:00,62.1,48.5,29.98,ESE,116,0.0,4.0,61,0.00,,,0.00,0,WeatherCatV1.14B232,2013-05-28 00:27:00,
2013-05-27 20:32:00,62.1,48.5,29.98,NW,321,0.0,2.0,61,0.00,,,0.00,0,WeatherCatV1.14B232,2013-05-28 00:32:00,
2013-05-27 20:37:00,62.1,48.5,29.98,ENE,75,0.0,4.0,61,0.00,,,0.00,0,WeatherCatV1.14B232,2013-05-28 00:37:00,
2013-05-27 20:42:00,62.1,48.5,29.99,ESE,120,2.0,4.0,61,0.00,,,0.00,0,WeatherCatV1.14B232,2013-05-28 00:42:00,
2013-05-27 20:47:00,62.2,48.1,29.99,ESE,115,4.0,6.0,60,0.00,,,0.00,0,WeatherCatV1.14B232,2013-05-28 00:47:00,
2013-05-27 20:52:00,62.5,48.9,29.99,ESE,112,2.0,5.0,61,0.00,,,0.00,0,WeatherCatV1.14B232,2013-05-28 00:52:00,
2013-05-27 20:57:00,62.7,48.6,29.99,ESE,116,4.0,4.0,60,0.00,,,0.00,0,WeatherCatV1.14B232,2013-05-28 00:57:00,
2013-05-27 21:02:00,62.9,47.9,29.99,WSW,237,0.0,2.0,58,0.00,,,0.00,0,WeatherCatV1.14B232,2013-05-28 01:02:00,
2013-05-27 21:07:00,63.1,48.5,29.99,ESE,114,1.0,4.0,59,0.00,,,0.00,0,WeatherCatV1.14B232,2013-05-28 01:07:00,
2013-05-27 21:12:00,63.2,48.2,29.99,ESE,114,4.0,6.0,58,0.00,,,0.00,0,WeatherCatV1.14B232,2013-05-28 01:12:00,
2013-05-27 21:17:00,63.3,47.8,29.99,ESE,103,2.0,5.0,57,0.00,,,0.00,0,WeatherCatV1.14B232,2013-05-28 01:17:00,
2013-05-27 21:22:00,63.3,47.8,30.00,ESE,103,4.0,6.0,57,0.00,,,0.00,0,WeatherCatV1.14B232,2013-05-28 01:22:00,
2013-05-27 21:27:00,63.5,48.0,30.00,ESE,113,4.0,5.0,57,0.00,,,0.00,0,WeatherCatV1.14B232,2013-05-28 01:27:00,
2013-05-27 21:32:00,63.6,48.1,30.00,ESE,115,2.0,5.0,57,0.00,,,0.00,0,WeatherCatV1.14B232,2013-05-28 01:32:00,
2013-05-27 21:37:00,63.6,48.1,30.00,East,94,6.0,6.0,57,0.00,,,0.00,0,WeatherCatV1.14B232,2013-05-28 01:37:00,
2013-05-27 21:43:00,63.5,48.0,30.00,West,270,2.0,6.0,57,0.00,,,0.00,0,WeatherCatV1.14B232,2013-05-28 01:43:00,
2013-05-27 21:48:00,63.3,48.3,30.00,ENE,76,0.0,5.0,58,0.00,,,0.00,0,WeatherCatV1.14B232,2013-05-28 01:48:00,
2013-05-27 21:53:00,63.1,48.5,30.00,East,95,2.0,6.0,59,0.00,,,0.00,0,WeatherCatV1.14B232,2013-05-28 01:53:00,
2013-05-27 21:58:00,62.8,48.3,30.00,ESE,110,5.0,6.0,59,0.00,,,0.00,0,WeatherCatV1.14B232,2013-05-28 01:58:00,
2013-05-27 22:03:00,62.6,48.5,30.00,East,100,1.0,6.0,60,0.00,,,0.00,0,WeatherCatV1.14B232,2013-05-28 02:03:00,
2013-05-27 22:08:00,62.3,48.7,30.01,East,101,4.0,5.0,61,0.00,,,0.00,0,WeatherCatV1.14B232,2013-05-28 02:08:00,
2013-05-27 22:13:00,62.1,48.9,30.01,SE,126,4.0,7.0,62,0.00,,,0.00,0,WeatherCatV1.14B232,2013-05-28 02:13:00,
2013-05-27 22:18:00,61.9,48.3,30.01,ESE,119,5.0,5.0,61,0.00,,,0.00,0,WeatherCatV1.14B232,2013-05-28 02:18:00,
2013-05-27 22:23:00,62.2,48.1,30.01,SW,228,2.0,4.0,60,0.00,,,0.00,0,WeatherCatV1.14B232,2013-05-28 02:23:00,
2013-05-27 22:28:00,62.3,47.8,30.01,ESE,107,2.0,5.0,59,0.00,,,0.00,0,WeatherCatV1.14B232,2013-05-28 02:28:00,
2013-05-27 22:33:00,62.3,47.8,30.01,ESE,111,4.0,4.0,59,0.00,,,0.00,0,WeatherCatV1.14B232,2013-05-28 02:33:00,
2013-05-27 22:38:00,62.3,48.2,30.01,ESE,105,5.0,5.0,60,0.00,,,0.00,0,WeatherCatV1.14B232,2013-05-28 02:38:00,
2013-05-27 22:43:00,62.3,48.7,30.01,ESE,114,0.0,5.0,61,0.00,,,0.00,0,WeatherCatV1.14B232,2013-05-28 02:43:00,
2013-05-27 22:48:00,62.3,48.2,30.01,ESE,110,5.0,5.0,60,0.00,,,0.00,0,WeatherCatV1.14B232,2013-05-28 02:48:00,
2013-05-27 22:53:00,62.5,48.4,30.01,ESE,110,4.0,5.0,60,0.00,,,0.00,0,WeatherCatV1.14B232,2013-05-28 02:53:00,
2013-05-27 22:58:00,62.6,47.6,30.01,East,86,0.0,3.0,58,0.00,,,0.00,0,WeatherCatV1.14B232,2013-05-28 02:58:00,
2013-05-27 23:03:00,62.7,47.2,30.01,East,97,4.0,4.0,57,0.00,,,0.00,0,WeatherCatV1.14B232,2013-05-28 03:03:00,
2013-05-27 23:08:00,62.8,47.3,30.01,ESE,118,2.0,4.0,57,0.00,,,0.00,0,WeatherCatV1.14B232,2013-05-28 03:08:00,
2013-05-27 23:13:00,62.8,47.8,30.01,ESE,104,2.0,5.0,58,0.00,,,0.00,0,WeatherCatV1.14B232,2013-05-28 03:13:00,
2013-05-27 23:18:00,62.8,48.3,30.01,ESE,109,1.0,5.0,59,0.00,,,0.00,0,WeatherCatV1.14B232,2013-05-28 03:18:00,
2013-05-27 23:23:00,62.6,48.5,30.01,ESE,107,1.0,4.0,60,0.00,,,0.00,0,WeatherCatV1.14B232,2013-05-28 03:23:00,
2013-05-27 23:28:00,62.6,47.1,30.02,ESE,114,2.0,6.0,57,0.00,,,0.00,0,WeatherCatV1.14B232,2013-05-28 03:28:00,
2013-05-27 23:33:00,62.7,47.2,30.02,SE,125,2.0,5.0,57,0.00,,,0.00,0,WeatherCatV1.14B232,2013-05-28 03:33:00,
2013-05-27 23:38:00,62.7,46.8,30.02,ESE,107,1.0,4.0,56,0.00,,,0.00,0,WeatherCatV1.14B232,2013-05-28 03:38:00,
2013-05-27 23:43:00,62.8,46.4,30.02,ESE,110,0.0,1.0,55,0.00,,,0.00,0,WeatherCatV1.14B232,2013-05-28 03:43:00,
2013-05-27 23:48:00,62.7,47.2,30.02,ESE,105,2.0,2.0,57,0.00,,,0.00,0,WeatherCatV1.14B232,2013-05-28 03:48:00,
2013-05-27 23:53:00,62.6,47.6,30.02,ESE,105,1.0,2.0,58,0.00,,,0.00,0,WeatherCatV1.14B232,2013-05-28 03:53:00,
2013-05-27 23:58:00,62.4,48.8,30.02,ESE,111,1.0,5.0,61,0.00,,,0.00,0,WeatherCatV1.14B232,2013-05-28 03:58:00,